SL-19 R/B, 23440

Orbit data source: Space-Track

SL-19 R/B, 23440 is space debris in LEO originally from a launch on Mon, 26 Dec 1994 UTC launched from the Tyuratam Missile And Space Complex (TTMTR). Debris objects in space refer to the collection of defunct objects orbiting the Earth. Examples of debris include non-operational satellites, rocket bodies, and fragments generated from explosions, collisions, or faulty payload assembly.

Loading next visibility...
Identifier
23440, 1994-085B
Orbit
LEO
Country
Flag of CISCIS
Related business
Manufacturer
Khrunichev
Mission
Spacecraft
Bus & Motor
BRIZ, Unknown motor
Mass
~1,700 kg wet, ~1,700 kg dry
Launch date (UTC)
1994-12-26 (31 years ago)
Launch vehicle
Unknown
Launch site
Tyuratam Missile And Space Complex (TTMTR)
Object type
Payload
Rocket body
Debris
Shape & HBR
Hex Cyl + 1 Rod, 1.3 m
Radar Cross Section
5.049 m², Large (>1 m²)

Expand to show TLE details & history
Last TLE update: 14 hours ago

TLE from 14 hours ago
0 SL-19 R/B
1 23440U 94085B   26014.07925679 -.00000017  00000-0  70588-3 0  9997
2 23440  64.8299 217.4508 0176461   9.8251 169.1659 11.27134294278244
Epoch: 2026-01-14T01:54Z
TLE epoch observation values (Epoch: 2026-01-14T01:54:07.786Z)
Latitude
0.49597°
Longitude
-104.86605°
Altitude
2,171.888 km
Speed
6.77 km/s
True Right ascension
02h 28m 52s
True Declination
0° 29' 37"
Sunlit
Object was in daylight at epoch
Visualization orbit readout
Latitude
Unknown
Longitude
Unknown
Altitude
Unknown
Speed
Unknown
Apparent Right ascension
Unknown
Apparent Declination
Unknown
Sunlit
N/A
Visualization observer readout
Local Sidereal Time
16:20:32
Azimuth
Unknown
Elevation
Unknown
Doppler factor
Unknown
Orbital elements
Apogee altitude
2,171.607 km
Perigee altitude
1,875.1 km
Semi-major axis
8,401.491 km
Eccentricity
0.01765
Inclination
64.8299°
RAAN
217.4508°
Arg. of periapsis
9.8251°
True anomaly
169.53792°
Mean anomaly
169.1659°
Eccentric anomaly
169.3527°
Mean motion
2.81844 °/min
Orbital period
127.73 mins
BSTAR
0.00070588
Loading maneuver chart data...
Computing Atmospheric mass density...
Loading historical data...
Loading historical data...
Loading historical data...
Loading historical data...
Loading historical data...
Loading historical data...
Loading historical data...

Documentation

Showing up to 5 results
|